,,Stat5,,Stat1,,Stat2,,Stat3,,Stat4,,Wind1,,Wind1,
time,status,PA1M_AVG,status,PR1M_SUM,status,RH1M_AVG,status,SR1M_AVG,status,TA1M_AVG,status,W1dAve1m,status,W1sAve1m,
2003-04-13, 00:00:01,VALID,918.983,VALID,0,VALID,99.5946,VALID,0.475463,VALID,19.7069,VALID,101,VALID,0.398237,
2003-04-13, 00:01:00,VALID,918.974,VALID,0,VALID,99.6111,VALID,0.492444,VALID,19.7134,VALID,88,VALID,0.40435,
2003-04-13, 00:02:00,VALID,918.958,VALID,0,VALID,99.6213,VALID,0.441502,VALID,19.7072,VALID,85,VALID,0.528571,
2003-04-13, 00:03:00,VALID,918.959,VALID,0,VALID,99.6124,VALID,0.475463,VALID,19.7042,VALID,75,VALID,0.390024,
2003-04-13, 00:04:00,VALID,918.939,VALID,0,VALID,99.6111,VALID,0.458482,VALID,19.6751,VALID,61,VALID,0.297348,
2003-04-13, 00:05:00,VALID,918.934,VALID,0,VALID,99.6137,VALID,0.441502,VALID,19.6552,VALID,61,VALID,0.145904,
2003-04-13, 00:06:00,VALID,918.93,VALID,0,VALID,99.6226,VALID,0.458482,VALID,19.6621,VALID,61,VALID,0,
2003-04-13, 00:07:00,VALID,918.943,VALID,0,VALID,99.6455,VALID,0.424521,VALID,19.6751,VALID,61,VALID,0,
2003-04-13, 00:08:00,VALID,918.916,VALID,0,VALID,99.6429,VALID,0.458482,VALID,19.6684,VALID,61,VALID,0,
2003-04-13, 00:09:00,VALID,918.903,VALID,0,VALID,99.6493,VALID,0.526406,VALID,19.6552,VALID,61,VALID,0,
2003-04-13, 00:10:00,VALID,918.897,VALID,0,VALID,99.6544,VALID,0.509425,VALID,19.649,VALID,61,VALID,0,
2003-04-13, 00:11:00,VALID,918.858,VALID,0,VALID,99.6658,VALID,0.475463,VALID,19.6716,VALID,61,VALID,0,
2003-04-13, 00:12:00,VALID,918.83,VALID,0,VALID,99.6874,VALID,0.509425,VALID,19.6783,VALID,61,VALID,0,
2003-04-13, 00:13:00,VALID,918.801,VALID,0,VALID,99.7027,VALID,0.526406,VALID,19.6907,VALID,61,VALID,0,
2003-04-13, 00:14:00,VALID,918.764,VALID,0,VALID,99.7091,VALID,0.509425,VALID,19.7104,VALID,61,VALID,0,
2003-04-13, 00:15:00,VALID,918.74,VALID,0,VALID,99.7243,VALID,0.509425,VALID,19.74,VALID,61,VALID,0,
2003-04-13, 00:16:00,VALID,918.718,VALID,0,VALID,99.7307,VALID,0.509425,VALID,19.7457,VALID,61,VALID,0,
2003-04-13, 00:17:00,VALID,918.699,VALID,0,VALID,99.7358,VALID,0.492444,VALID,19.7651,VALID,61,VALID,0,
2003-04-13, 00:18:00,VALID,918.665,VALID,0,VALID,99.7459,VALID,0.509425,VALID,19.7785,VALID,61,VALID,0,
2003-04-13, 00:19:00,VALID,918.655,VALID,0,VALID,99.7497,VALID,0.492444,VALID,19.7885,VALID,61,VALID,0,
2003-04-13, 00:20:00,VALID,918.648,VALID,0,VALID,99.7497,VALID,0.492444,VALID,19.8081,VALID,61,VALID,0,
2003-04-13, 00:21:00,VALID,918.661,VALID,0,VALID,99.7587,VALID,0.475463,VALID,19.8106,VALID,61,VALID,0,
2003-04-13, 00:22:00,VALID,918.642,VALID,0,VALID,99.7701,VALID,0.492444,VALID,19.8228,VALID,61,VALID,0,
2003-04-13, 00:23:00,VALID,918.643,VALID,0,VALID,99.7701,VALID,0.475463,VALID,19.8467,VALID,76,VALID,0.108686,
2003-04-13, 00:24:00,VALID,918.658,VALID,0,VALID,99.7675,VALID,0.322636,VALID,19.8541,VALID,114,VALID,0.373522,
2003-04-13, 00:25:00,VALID,918.639,VALID,0,VALID,99.7701,VALID,0.390559,VALID,19.8479,VALID,128,VALID,0.530518,
2003-04-13, 00:26:00,VALID,918.637,VALID,0,VALID,99.7625,VALID,0.322636,VALID,19.8347,VALID,124,VALID,0.597973,
2003-04-13, 00:27:00,VALID,918.611,VALID,0,VALID,99.765,VALID,0.356597,VALID,19.8414,VALID,105,VALID,0.598273,
2003-04-13, 00:28:00,VALID,918.58,VALID,0,VALID,99.7752,VALID,0.305655,VALID,19.8549,VALID,115,VALID,0.738076,
2003-04-13, 00:29:00,VALID,918.551,VALID,0,VALID,99.7777,VALID,0.305655,VALID,19.8643,VALID,179,VALID,0.617188,
2003-04-13, 00:30:00,VALID,918.519,VALID,0,VALID,99.7879,VALID,0.271693,VALID,19.8972,VALID,193,VALID,0.205882,
2003-04-13, 00:31:00,VALID,918.494,VALID,0,VALID,99.8019,VALID,0.339617,VALID,19.9126,VALID,193,VALID,0.10663,
2003-04-13, 00:32:00,VALID,918.467,VALID,0,VALID,99.7993,VALID,0.322636,VALID,19.932,VALID,193,VALID,0.0563447,
2003-04-13, 00:33:00,VALID,918.458,VALID,0,VALID,99.7892,VALID,0.339617,VALID,19.9387,VALID,193,VALID,0.193623,
2003-04-13, 00:34:00,VALID,918.432,VALID,0,VALID,99.7828,VALID,0.339617,VALID,19.935,VALID,166,VALID,0.370066,
2003-04-13, 00:35:00,VALID,918.415,VALID,0,VALID,99.7841,VALID,0.305655,VALID,19.9188,VALID,161,VALID,0.373561,
2003-04-13, 00:36:00,VALID,918.407,VALID,0,VALID,99.7701,VALID,0.339617,VALID,19.9061,VALID,153,VALID,0.361281,
2003-04-13, 00:37:00,VALID,918.391,VALID,0,VALID,99.7472,VALID,0.305655,VALID,19.8865,VALID,153,VALID,0.334559,
2003-04-13, 00:38:00,VALID,918.379,VALID,0,VALID,99.7599,VALID,0.390559,VALID,19.8894,VALID,153,VALID,0,
2003-04-13, 00:39:00,VALID,918.361,VALID,0,VALID,99.7561,VALID,0.441502,VALID,19.8882,VALID,153,VALID,0,
2003-04-13, 00:40:00,VALID,918.33,VALID,0,VALID,99.7587,VALID,0.475463,VALID,19.8877,VALID,153,VALID,0,
2003-04-13, 00:41:01,VALID,918.295,VALID,0,VALID,99.7637,VALID,0.424521,VALID,19.9143,VALID,153,VALID,0,
2003-04-13, 00:42:00,VALID,918.255,VALID,0,VALID,99.7688,VALID,0.458482,VALID,19.9173,VALID,153,VALID,0,
2003-04-13, 00:43:00,VALID,918.231,VALID,0,VALID,99.7701,VALID,0.458482,VALID,19.9237,VALID,153,VALID,0.242378,
2003-04-13, 00:44:00,VALID,918.188,VALID,0,VALID,99.7599,VALID,0.458482,VALID,19.9235,VALID,153,VALID,0.197381,
2003-04-13, 00:45:00,VALID,918.156,VALID,0,VALID,99.7688,VALID,0.475463,VALID,19.9235,VALID,153,VALID,0.327492,
2003-04-13, 00:46:00,VALID,918.125,VALID,0,VALID,99.7523,VALID,0.441502,VALID,19.9237,VALID,153,VALID,0.34517,
2003-04-13, 00:47:00,VALID,918.11,VALID,0,VALID,99.7523,VALID,0.458482,VALID,19.9168,VALID,153,VALID,0.143792,
2003-04-13, 00:48:00,VALID,918.067,VALID,0,VALID,99.7612,VALID,0.40754,VALID,19.9267,VALID,147,VALID,0.655222,
2003-04-13, 00:49:00,VALID,918.037,VALID,0,VALID,99.751,VALID,0.424521,VALID,19.9272,VALID,141,VALID,0.526933,
2003-04-13, 00:50:01,VALID,917.996,VALID,0,VALID,99.751,VALID,0.40754,VALID,19.927,VALID,110,VALID,0.512005,
2003-04-13, 00:51:00,VALID,917.968,VALID,0,VALID,99.7523,VALID,0.40754,VALID,19.9044,VALID,101,VALID,0.542509,
2003-04-13, 00:52:00,VALID,917.932,VALID,0,VALID,99.7396,VALID,0.390559,VALID,19.9009,VALID,109,VALID,0.61022,
2003-04-13, 00:53:00,VALID,917.913,VALID,0,VALID,99.7523,VALID,0.339617,VALID,19.9054,VALID,95,VALID,0.305664,
2003-04-13, 00:54:00,VALID,917.865,VALID,0,VALID,99.7561,VALID,0.271693,VALID,19.9223,VALID,120,VALID,0.64527,
2003-04-13, 00:55:01,VALID,917.848,VALID,0,VALID,99.7447,VALID,0.271693,VALID,19.9093,VALID,109,VALID,0.451891,
2003-04-13, 00:56:00,VALID,917.806,VALID,0,VALID,99.7536,VALID,0.271693,VALID,19.9183,VALID,123,VALID,0.346834,
2003-04-13, 00:57:01,VALID,917.783,VALID,0,VALID,99.7497,VALID,0.271693,VALID,19.9253,VALID,131,VALID,0.286395,
2003-04-13, 00:58:00,VALID,917.757,VALID,0,VALID,99.765,VALID,0.305655,VALID,19.9218,VALID,146,VALID,0.353631,
2003-04-13, 00:59:00,VALID,917.74,VALID,0,VALID,99.765,VALID,0.254712,VALID,19.9315,VALID,149,VALID,0.458615,
2003-04-13, 01:00:00,VALID,917.705,VALID,0,VALID,99.7688,VALID,0.305655,VALID,19.9312,VALID,145,VALID,0.439157,
2003-04-13, 01:01:00,VALID,917.691,VALID,0,VALID,99.7726,VALID,0.220751,VALID,19.9382,VALID,153,VALID,0.539063,
2003-04-13, 01:02:01,VALID,917.644,VALID,0,VALID,99.7663,VALID,0.339617,VALID,19.9379,VALID,118,VALID,0.590255,
2003-04-13, 01:03:00,VALID,917.642,VALID,0,VALID,99.7625,VALID,0.288674,VALID,19.9347,VALID,126,VALID,0.627262,
2003-04-13, 01:04:00,VALID,917.599,VALID,0,VALID,99.7612,VALID,0.288674,VALID,19.935,VALID,161,VALID,0.799733,
2003-04-13, 01:05:00,VALID,917.586,VALID,0,VALID,99.7777,VALID,0.271693,VALID,19.9255,VALID,105,VALID,0.486443,
2003-04-13, 01:06:00,VALID,917.56,VALID,0,VALID,99.779,VALID,0.339617,VALID,19.9444,VALID,93,VALID,0.30511,
2003-04-13, 01:07:01,VALID,917.536,VALID,0,VALID,99.7714,VALID,0.305655,VALID,19.9447,VALID,91,VALID,0.70166,
2003-04-13, 01:08:01,VALID,917.518,VALID,0,VALID,99.7701,VALID,0.356597,VALID,19.9379,VALID,116,VALID,0.923775,
2003-04-13, 01:09:01,VALID,917.492,VALID,0,VALID,99.7675,VALID,0.339617,VALID,19.9339,VALID,118,VALID,1.00308,
2003-04-13, 01:10:00,VALID,917.456,VALID,0,VALID,99.7714,VALID,0.373578,VALID,19.9272,VALID,101,VALID,0.998972,
2003-04-13, 01:11:01,VALID,917.437,VALID,0,VALID,99.7777,VALID,0.390559,VALID,19.9205,VALID,96,VALID,1.02896,
2003-04-13, 01:12:00,VALID,917.427,VALID,0,VALID,99.7675,VALID,0.356597,VALID,19.9307,VALID,108,VALID,0.929228,
2003-04-13, 01:13:00,VALID,917.407,VALID,0,VALID,99.7752,VALID,0.373578,VALID,19.9277,VALID,123,VALID,0.809122,
2003-04-13, 01:14:00,VALID,917.396,VALID,0,VALID,99.7815,VALID,0.373578,VALID,19.9434,VALID,103,VALID,0.354877,
2003-04-13, 01:15:00,VALID,917.403,VALID,0,VALID,99.7803,VALID,0.373578,VALID,19.9633,VALID,95,VALID,0.587416,
2003-04-13, 01:16:01,VALID,917.404,VALID,0,VALID,99.7815,VALID,0.40754,VALID,19.9526,VALID,117,VALID,0.686472,
2003-04-13, 01:17:00,VALID,917.393,VALID,0,VALID,99.7675,VALID,0.390559,VALID,19.9566,VALID,90,VALID,0.237664,
2003-04-13, 01:18:01,VALID,917.393,VALID,0,VALID,99.7815,VALID,0.356597,VALID,19.976,VALID,123,VALID,0.495427,
2003-04-13, 01:19:00,VALID,917.387,VALID,0,VALID,99.7815,VALID,0.356597,VALID,19.9792,VALID,175,VALID,0.483456,
2003-04-13, 01:20:00,VALID,917.382,VALID,0,VALID,99.7828,VALID,0.390559,VALID,19.979,VALID,134,VALID,0.958615,
2003-04-13, 01:21:01,VALID,917.368,VALID,0,VALID,99.7765,VALID,0.322636,VALID,19.9561,VALID,151,VALID,0.754639,
2003-04-13, 01:22:00,VALID,917.362,VALID,0,VALID,99.7854,VALID,0.373578,VALID,19.9727,VALID,161,VALID,0.468328,
2003-04-13, 01:23:01,VALID,917.339,VALID,0,VALID,99.7854,VALID,0.322636,VALID,19.9698,VALID,142,VALID,1.48211,
2003-04-13, 01:24:00,VALID,917.334,VALID,0,VALID,99.765,VALID,0.390559,VALID,19.9334,VALID,136,VALID,0.748561,
2003-04-13, 01:25:01,VALID,917.304,VALID,0,VALID,99.7688,VALID,0.322636,VALID,19.9397,VALID,153,VALID,0.605374,
2003-04-13, 01:26:00,VALID,917.289,VALID,0,VALID,99.7777,VALID,0.339617,VALID,19.9571,VALID,108,VALID,0.316176,
2003-04-13, 01:27:00,VALID,917.251,VALID,0,VALID,99.7917,VALID,0.356597,VALID,19.9623,VALID,149,VALID,0.21685,
2003-04-13, 01:28:00,VALID,917.244,VALID,0,VALID,99.7828,VALID,0.322636,VALID,19.9499,VALID,137,VALID,0.776042,
2003-04-13, 01:29:00,VALID,917.202,VALID,0,VALID,99.7828,VALID,0.339617,VALID,19.9402,VALID,146,VALID,1.12479,
2003-04-13, 01:30:01,VALID,917.169,VALID,0,VALID,99.7663,VALID,0.373578,VALID,19.9208,VALID,151,VALID,1.37007,
2003-04-13, 01:31:00,VALID,917.142,VALID,0,VALID,99.7803,VALID,0.322636,VALID,19.8976,VALID,147,VALID,1.82401,
2003-04-13, 01:32:01,VALID,917.095,VALID,0,VALID,99.7828,VALID,0.339617,VALID,19.8947,VALID,152,VALID,1.54078,
2003-04-13, 01:33:01,VALID,917.064,VALID,0,VALID,99.7777,VALID,0.339617,VALID,19.8917,VALID,142,VALID,1.35685,
2003-04-13, 01:34:00,VALID,917.022,VALID,0,VALID,99.7917,VALID,0.271693,VALID,19.8919,VALID,153,VALID,1.02597,
2003-04-13, 01:35:01,VALID,917.006,VALID,0,VALID,99.7663,VALID,0.322636,VALID,19.8792,VALID,145,VALID,1.34692,
2003-04-13, 01:36:00,VALID,916.967,VALID,0,VALID,99.7739,VALID,0.254712,VALID,19.872,VALID,157,VALID,1.39443,
2003-04-13, 01:37:01,VALID,916.963,VALID,0,VALID,99.7574,VALID,0.305655,VALID,19.8596,VALID,141,VALID,0.67537,
2003-04-13, 01:38:00,VALID,916.949,VALID,0,VALID,99.7675,VALID,0.305655,VALID,19.8491,VALID,145,VALID,1.14576,
2003-04-13, 01:39:01,VALID,916.924,VALID,0,VALID,99.7675,VALID,0.390559,VALID,19.8355,VALID,154,VALID,1.04726,
2003-04-13, 01:40:01,VALID,916.906,VALID,0,VALID,99.7587,VALID,0.356597,VALID,19.8424,VALID,154,VALID,0.985064,
2003-04-13, 01:41:00,VALID,916.915,VALID,0,VALID,99.7485,VALID,0.40754,VALID,19.8389,VALID,148,VALID,0.941723,
2003-04-13, 01:42:00,VALID,916.881,VALID,0,VALID,99.7485,VALID,0.424521,VALID,19.8258,VALID,146,VALID,1.04167,
2003-04-13, 01:43:00,VALID,916.891,VALID,0,VALID,99.7485,VALID,0.458482,VALID,19.8061,VALID,150,VALID,1.10621,
2003-04-13, 01:44:01,VALID,916.866,VALID,0,VALID,99.7358,VALID,0.40754,VALID,19.8094,VALID,163,VALID,0.861842,
2003-04-13, 01:45:00,VALID,916.854,VALID,0,VALID,99.7281,VALID,0.40754,VALID,19.7934,VALID,155,VALID,0.44634,
2003-04-13, 01:46:01,VALID,916.861,VALID,0,VALID,99.7167,VALID,0.40754,VALID,19.7929,VALID,172,VALID,0.739139,
2003-04-13, 01:47:00,VALID,916.865,VALID,0,VALID,99.7052,VALID,0.424521,VALID,19.7865,VALID,171,VALID,1.05446,
2003-04-13, 01:48:01,VALID,916.884,VALID,0,VALID,99.6989,VALID,0.40754,VALID,19.7805,VALID,174,VALID,0.868454,
2003-04-13, 01:49:01,VALID,916.859,VALID,0,VALID,99.6747,VALID,0.441502,VALID,19.8004,VALID,149,VALID,0.740234,
2003-04-13, 01:50:00,VALID,916.864,VALID,0,VALID,99.6747,VALID,0.40754,VALID,19.7937,VALID,154,VALID,0.756546,
2003-04-13, 01:51:01,VALID,916.839,VALID,0,VALID,99.6569,VALID,0.373578,VALID,19.7937,VALID,170,VALID,0.811061,
2003-04-13, 01:52:00,VALID,916.834,VALID,0,VALID,99.634,VALID,0.424521,VALID,19.7907,VALID,146,VALID,0.945313,
2003-04-13, 01:53:01,VALID,916.817,VALID,0,VALID,99.6213,VALID,0.339617,VALID,19.7847,VALID,160,VALID,0.935976,
2003-04-13, 01:54:00,VALID,916.794,VALID,0,VALID,99.6061,VALID,0.288674,VALID,19.7922,VALID,155,VALID,0.654182,
2003-04-13, 01:55:00,VALID,916.792,VALID,0,VALID,99.5984,VALID,0.356597,VALID,19.7825,VALID,164,VALID,0.486698,
2003-04-13, 01:56:00,VALID,916.788,VALID,0,VALID,99.5895,VALID,0.288674,VALID,19.7857,VALID,179,VALID,0.372869,
2003-04-13, 01:57:00,VALID,916.79,VALID,0,VALID,99.5628,VALID,0.356597,VALID,19.7952,VALID,158,VALID,0.45228,
2003-04-13, 01:58:01,VALID,916.799,VALID,0,VALID,99.5259,VALID,0.288674,VALID,19.7957,VALID,162,VALID,0.555099,
2003-04-13, 01:59:00,VALID,916.804,VALID,0,VALID,99.4916,VALID,0.305655,VALID,19.7949,VALID,158,VALID,0.348067,
2003-04-13, 02:00:01,VALID,916.803,VALID,0,VALID,99.4522,VALID,0.305655,VALID,19.8086,VALID,171,VALID,0.221989,
2003-04-13, 02:01:00,VALID,916.792,VALID,0,VALID,99.4026,VALID,0.288674,VALID,19.8089,VALID,154,VALID,0.132583,
2003-04-13, 02:02:01,VALID,916.78,VALID,0,VALID,99.3466,VALID,0.288674,VALID,19.8081,VALID,143,VALID,0.184333,
2003-04-13, 02:03:01,VALID,916.782,VALID,0,VALID,99.2831,VALID,0.288674,VALID,19.8051,VALID,130,VALID,0.315674,
2003-04-13, 02:04:00,VALID,916.771,VALID,0,VALID,99.2119,VALID,0.305655,VALID,19.8089,VALID,116,VALID,0.366554,
2003-04-13, 02:05:01,VALID,916.745,VALID,0,VALID,99.1623,VALID,0.305655,VALID,19.7855,VALID,118,VALID,0.557771,
2003-04-13, 02:06:00,VALID,916.745,VALID,0,VALID,99.1279,VALID,0.305655,VALID,19.789,VALID,123,VALID,0.61472,
2003-04-13, 02:07:01,VALID,916.726,VALID,0,VALID,99.058,VALID,0.305655,VALID,19.7656,VALID,105,VALID,0.598323,
2003-04-13, 02:08:01,VALID,916.712,VALID,0,VALID,99.0135,VALID,0.339617,VALID,19.7494,VALID,88,VALID,0.545037,
2003-04-13, 02:09:00,VALID,916.679,VALID,0,VALID,98.983,VALID,0.254712,VALID,19.737,VALID,67,VALID,0.530194,
2003-04-13, 02:10:00,VALID,916.653,VALID,0,VALID,99.0211,VALID,0.305655,VALID,19.7203,VALID,87,VALID,0.617188,
2003-04-13, 02:11:00,VALID,916.636,VALID,0,VALID,99.0504,VALID,0.288674,VALID,19.7365,VALID,88,VALID,0.468328,
2003-04-13, 02:12:01,VALID,916.616,VALID,0,VALID,99.0198,VALID,0.305655,VALID,19.7372,VALID,72,VALID,0.261719,
2003-04-13, 02:13:00,VALID,916.592,VALID,0,VALID,98.9741,VALID,0.271693,VALID,19.7241,VALID,59,VALID,0.305921,
2003-04-13, 02:14:01,VALID,916.574,VALID,0,VALID,98.9512,VALID,0.288674,VALID,19.7086,VALID,60,VALID,0.275915,
2003-04-13, 02:15:01,VALID,916.553,VALID,0,VALID,98.9296,VALID,0.271693,VALID,19.6723,VALID,42,VALID,0.261029,
2003-04-13, 02:16:00,VALID,916.539,VALID,0,VALID,98.9575,VALID,0.339617,VALID,19.6753,VALID,42,VALID,0.138725,
2003-04-13, 02:17:01,VALID,916.529,VALID,0,VALID,98.9397,VALID,0.305655,VALID,19.6624,VALID,60,VALID,0.0483398,
2003-04-13, 02:18:01,VALID,916.516,VALID,0,VALID,98.9919,VALID,0.271693,VALID,19.643,VALID,104,VALID,0.512458,
2003-04-13, 02:19:01,VALID,916.501,VALID,0,VALID,98.9957,VALID,0.254712,VALID,19.6564,VALID,62,VALID,0.0596217,
2003-04-13, 02:20:00,VALID,916.496,VALID,0,VALID,99.03,VALID,0.288674,VALID,19.6599,VALID,126,VALID,0.447985,
2003-04-13, 02:21:01,VALID,916.488,VALID,0,VALID,99.0605,VALID,0.288674,VALID,19.6696,VALID,157,VALID,0.609566,
2003-04-13, 02:22:01,VALID,916.485,VALID,0,VALID,99.0466,VALID,0.288674,VALID,19.6766,VALID,153,VALID,0.158778,
2003-04-13, 02:23:00,VALID,916.485,VALID,0,VALID,99.0656,VALID,0.322636,VALID,19.6567,VALID,140,VALID,0.740498,
2003-04-13, 02:24:01,VALID,916.503,VALID,0,VALID,99.1139,VALID,0.288674,VALID,19.6626,VALID,142,VALID,0.839962,
2003-04-13, 02:25:00,VALID,916.508,VALID,0,VALID,99.133,VALID,0.271693,VALID,19.6599,VALID,81,VALID,0.467483,
2003-04-13, 02:26:01,VALID,916.522,VALID,0,VALID,99.1483,VALID,0.288674,VALID,19.65,VALID,152,VALID,0.18051,
2003-04-13, 02:27:00,VALID,916.523,VALID,0,VALID,99.1928,VALID,0.271693,VALID,19.637,VALID,138,VALID,0.250822,
2003-04-13, 02:28:01,VALID,916.522,VALID,0,VALID,99.2411,VALID,0.254712,VALID,19.6532,VALID,148,VALID,0.196646,
2003-04-13, 02:29:00,VALID,916.52,VALID,0,VALID,99.2856,VALID,0.254712,VALID,19.6599,VALID,173,VALID,0.436121,
2003-04-13, 02:30:00,VALID,916.511,VALID,0,VALID,99.3212,VALID,0.271693,VALID,19.6731,VALID,155,VALID,0.836571,
2003-04-13, 02:31:01,VALID,916.517,VALID,0,VALID,99.3098,VALID,0.254712,VALID,19.6666,VALID,173,VALID,0.588623,
2003-04-13, 02:32:00,VALID,916.516,VALID,0,VALID,99.3263,VALID,0.254712,VALID,19.6771,VALID,213,VALID,0.284417,
2003-04-13, 02:33:01,VALID,916.5,VALID,0,VALID,99.3581,VALID,0.254712,VALID,19.6631,VALID,173,VALID,0.841077,
2003-04-13, 02:34:00,VALID,916.51,VALID,0,VALID,99.3695,VALID,0.271693,VALID,19.6599,VALID,181,VALID,0.186266,
2003-04-13, 02:35:01,VALID,916.499,VALID,0,VALID,99.3759,VALID,0.271693,VALID,19.6562,VALID,169,VALID,0.110137,
2003-04-13, 02:36:01,VALID,916.479,VALID,0,VALID,99.4102,VALID,0.288674,VALID,19.6435,VALID,130,VALID,0.0891544,
2003-04-13, 02:37:01,VALID,916.499,VALID,0,VALID,99.4128,VALID,0.271693,VALID,19.6365,VALID,171,VALID,0.20228,
2003-04-13, 02:38:00,VALID,916.477,VALID,0,VALID,99.4408,VALID,0.254712,VALID,19.6343,VALID,144,VALID,0.33215,
2003-04-13, 02:39:01,VALID,916.479,VALID,0,VALID,99.4636,VALID,0.305655,VALID,19.637,VALID,116,VALID,0.399916,
2003-04-13, 02:40:01,VALID,916.453,VALID,0,VALID,99.456,VALID,0.288674,VALID,19.6241,VALID,113,VALID,0.582648,
2003-04-13, 02:41:01,VALID,916.444,VALID,0,VALID,99.4496,VALID,0.254712,VALID,19.6214,VALID,93,VALID,0.503289,
2003-04-13, 02:42:01,VALID,916.442,VALID,0,VALID,99.4802,VALID,0.237732,VALID,19.6017,VALID,111,VALID,0.875381,
2003-04-13, 02:43:01,VALID,916.432,VALID,0,VALID,99.517,VALID,0.305655,VALID,19.5948,VALID,113,VALID,0.873162,
2003-04-13, 02:44:01,VALID,916.427,VALID,0,VALID,99.5298,VALID,0.220751,VALID,19.6015,VALID,109,VALID,0.765414,
2003-04-13, 02:45:01,VALID,916.419,VALID,0,VALID,99.5285,VALID,0.271693,VALID,19.6049,VALID,106,VALID,0.63208,
2003-04-13, 02:46:01,VALID,916.411,VALID,0,VALID,99.5323,VALID,0.237732,VALID,19.6311,VALID,117,VALID,0.799831,
2003-04-13, 02:47:01,VALID,916.395,VALID,0,VALID,99.5298,VALID,0.271693,VALID,19.6308,VALID,112,VALID,0.822368,
2003-04-13, 02:48:01,VALID,916.382,VALID,0,VALID,99.4853,VALID,0.254712,VALID,19.6204,VALID,116,VALID,0.815995,
2003-04-13, 02:49:01,VALID,916.368,VALID,0,VALID,99.4408,VALID,0.220751,VALID,19.634,VALID,114,VALID,0.781822,
2003-04-13, 02:50:01,VALID,916.357,VALID,0,VALID,99.4013,VALID,0.237732,VALID,19.6375,VALID,111,VALID,0.725873,
2003-04-13, 02:51:01,VALID,916.336,VALID,0,VALID,99.3594,VALID,0.254712,VALID,19.644,VALID,110,VALID,0.785262,
2003-04-13, 02:52:01,VALID,916.322,VALID,0,VALID,99.339,VALID,0.254712,VALID,19.637,VALID,105,VALID,0.622159,
2003-04-13, 02:53:01,VALID,916.309,VALID,0,VALID,99.3009,VALID,0.271693,VALID,19.6432,VALID,95,VALID,0.770904,
2003-04-13, 02:54:01,VALID,916.292,VALID,0,VALID,99.2831,VALID,0.254712,VALID,19.6529,VALID,97,VALID,0.921669,
2003-04-13, 02:55:01,VALID,916.292,VALID,0,VALID,99.2335,VALID,0.254712,VALID,19.6562,VALID,87,VALID,0.764803,
2003-04-13, 02:56:01,VALID,916.275,VALID,0,VALID,99.1445,VALID,0.271693,VALID,19.6435,VALID,78,VALID,0.75362,
2003-04-13, 02:57:00,VALID,916.281,VALID,0,VALID,99.1216,VALID,0.271693,VALID,19.6211,VALID,84,VALID,0.724265,
2003-04-13, 02:58:00,VALID,916.276,VALID,0,VALID,99.1063,VALID,0.271693,VALID,19.6179,VALID,85,VALID,0.877745,
2003-04-13, 02:59:00,VALID,916.283,VALID,0,VALID,99.0834,VALID,0.271693,VALID,19.6144,VALID,83,VALID,1.03394,
2003-04-13, 03:00:00,VALID,916.277,VALID,0,VALID,99.0707,VALID,0.271693,VALID,19.6015,VALID,84,VALID,1.11972,
2003-04-13, 03:01:00,VALID,916.274,VALID,0,VALID,99.0593,VALID,0.237732,VALID,19.5885,VALID,84,VALID,0.985197,
2003-04-13, 03:02:00,VALID,916.263,VALID,0.2,VALID,99.0631,VALID,0.271693,VALID,19.602,VALID,90,VALID,1.0368,
2003-04-13, 03:03:00,VALID,916.255,VALID,0,VALID,99.0898,VALID,0.237732,VALID,19.5923,VALID,91,VALID,1.09184,
2003-04-13, 03:04:00,VALID,916.237,VALID,0,VALID,99.1267,VALID,0.237732,VALID,19.5923,VALID,94,VALID,1.08525,
2003-04-13, 03:05:00,VALID,916.227,VALID,0,VALID,99.1254,VALID,0.271693,VALID,19.5851,VALID,103,VALID,0.786951,
2003-04-13, 03:06:00,VALID,916.216,VALID,0,VALID,99.0822,VALID,0.220751,VALID,19.589,VALID,105,VALID,0.87642,
2003-04-13, 03:07:00,VALID,916.219,VALID,0,VALID,99.0593,VALID,0.220751,VALID,19.5726,VALID,122,VALID,1.02829,
2003-04-13, 03:08:00,VALID,916.205,VALID,0,VALID,99.0427,VALID,0.220751,VALID,19.5637,VALID,136,VALID,0.690378,
2003-04-13, 03:09:00,VALID,916.197,VALID,0,VALID,99.1012,VALID,0.169808,VALID,19.5515,VALID,131,VALID,0.788857,
2003-04-13, 03:10:00,VALID,916.2,VALID,0,VALID,99.1279,VALID,0.169808,VALID,19.5542,VALID,137,VALID,1.137,
2003-04-13, 03:11:00,VALID,916.196,VALID,0,VALID,99.1406,VALID,0.152827,VALID,19.5517,VALID,141,VALID,0.994945,
2003-04-13, 03:12:00,VALID,916.199,VALID,0,VALID,99.1292,VALID,0.135847,VALID,19.542,VALID,152,VALID,0.968539,
2003-04-13, 03:13:00,VALID,916.208,VALID,0,VALID,99.1941,VALID,0.135847,VALID,19.5348,VALID,152,VALID,1.07935,
2003-04-13, 03:14:00,VALID,916.228,VALID,0,VALID,99.2182,VALID,0.152827,VALID,19.5482,VALID,148,VALID,1.21242,
2003-04-13, 03:15:00,VALID,916.222,VALID,0,VALID,99.2208,VALID,0.152827,VALID,19.542,VALID,150,VALID,1.10588,
2003-04-13, 03:16:00,VALID,916.224,VALID,0,VALID,99.2462,VALID,0.152827,VALID,19.5346,VALID,144,VALID,1.06579,
2003-04-13, 03:17:00,VALID,916.219,VALID,0,VALID,99.278,VALID,0.135847,VALID,19.5318,VALID,139,VALID,0.85423,
2003-04-13, 03:18:00,VALID,916.222,VALID,0,VALID,99.3123,VALID,0.169808,VALID,19.5154,VALID,138,VALID,1.12684,
2003-04-13, 03:19:00,VALID,916.227,VALID,0,VALID,99.306,VALID,0.118866,VALID,19.5094,VALID,147,VALID,0.75739,
2003-04-13, 03:20:00,VALID,916.238,VALID,0,VALID,99.3479,VALID,0.101885,VALID,19.4997,VALID,153,VALID,0.983428,
2003-04-13, 03:21:00,VALID,916.243,VALID,0,VALID,99.3975,VALID,0.135847,VALID,19.4965,VALID,147,VALID,1.0568,
2003-04-13, 03:22:00,VALID,916.266,VALID,0,VALID,99.4573,VALID,0.135847,VALID,19.506,VALID,159,VALID,0.816612,
2003-04-13, 03:23:00,VALID,916.257,VALID,0,VALID,99.4827,VALID,0.152827,VALID,19.5119,VALID,162,VALID,1.27549,
2003-04-13, 03:24:00,VALID,916.279,VALID,0,VALID,99.5183,VALID,0.186789,VALID,19.5276,VALID,161,VALID,0.638529,
2003-04-13, 03:25:00,VALID,916.276,VALID,0,VALID,99.517,VALID,0.169808,VALID,19.5274,VALID,169,VALID,0.548024,
2003-04-13, 03:26:00,VALID,916.275,VALID,0,VALID,99.5183,VALID,0.186789,VALID,19.5241,VALID,164,VALID,1.00718,
2003-04-13, 03:27:00,VALID,916.278,VALID,0,VALID,99.5501,VALID,0.220751,VALID,19.5274,VALID,171,VALID,0.721191,
2003-04-13, 03:28:00,VALID,916.273,VALID,0,VALID,99.5412,VALID,0.237732,VALID,19.5304,VALID,158,VALID,0.605785,
2003-04-13, 03:29:00,VALID,916.294,VALID,0,VALID,99.5577,VALID,0.20377,VALID,19.5304,VALID,150,VALID,1.37952,
2003-04-13, 03:30:00,VALID,916.283,VALID,0,VALID,99.5603,VALID,0.186789,VALID,19.5465,VALID,112,VALID,0.515214,
2003-04-13, 03:31:00,VALID,916.282,VALID,0,VALID,99.5628,VALID,0.220751,VALID,19.5468,VALID,14,VALID,0.157203,
2003-04-13, 03:32:00,VALID,916.285,VALID,0,VALID,99.5565,VALID,0.169808,VALID,19.5363,VALID,36,VALID,0.196002,
2003-04-13, 03:33:00,VALID,916.288,VALID,0,VALID,99.5425,VALID,0.152827,VALID,19.5308,VALID,103,VALID,0.627745,
2003-04-13, 03:34:00,VALID,916.293,VALID,0,VALID,99.5437,VALID,0.152827,VALID,19.5433,VALID,111,VALID,0.481771,